Tracking 35331 objects as of 15-Sep-2026
HD Live streaming from Space Station
objects crossing your sky now

SL-12 DEB


SL-12 DEB is no longer on orbit


NORAD ID: 34665
Int'l Code: 1991-025J
Launch date: April 4, 1991
Source: Commonwealth of Independent States (former USSR) (CIS)
Launch site: TYURATAM MISSILE AND SPACE COMPLEX (TTMTR)
Decay date: 2009-05-14

Note: This is SATELLITE DEBRIS
Your satellite tracking list
Your tracking list is empty




NASA's NSSDC Master Catalog

Two Line Element Set (TLE):
1 34665U 91025J   09130.99132087 -.00000040 +00000-0 +00000-0 0  9998
2 34665 067.9569 109.7762 3690667 027.7721 347.9074 08.06763834002576
Source of the keplerian elements: AFSPC